CZ-6A DEB

Satellite information

Favourite Embed

Satellite Type and Status

DEBRISIN ORBIT

Key statistics

Satellite CZ-6A DEB at a glance.

Uptime

969

Days in orbit

Revolutions

≈ 14.2

Per day

Orbit

SSO

Sun Synchronous Orbit

Inclination

98.8

Latest

Satellite identification and parameters

Extended collection of information and parameters for CZ-6A DEB.

Object identification

Identified? True

Debris? True

Object name: CZ-6A DEB

International designator: 2022-151US

Object number (NORAD): 55002

Object ID (CCSDS): 55002

Country: PEOPLES REPUBLIC OF CHINA (PRC)

Current information (Y/N): Y

RCS size: SMALL

Orbital parameters

Period: 101.648 minutes

Inclination: 98.7925 deg

SMA: 7214.82 km

Apoapsis: 856.53 km

Periapsis: 816.841 km

RAAN: 193.2289 deg

Eccentricy: 0.0027505

Argument of periapsis: 228.7718 deg

Mean anomaly: 131.1086 deg

Mean motion: 14.16656269 rev/day

Mean motion (dot): 0.00001 rev/day2

B* drag term: 0.00052112 1/REarth

Two-line elements (TLE)

Creation date: July 6, 2025, 6:05 p.m.

Reference frame: TEME

Reference center: EARTH

Epoch: July 6, 2025, 11:10 a.m. UTC

TLE line 0: 0 CZ-6A DEB

TLE line 1: 1 55002U 22151US 25187.46591398 .00001000 00000-0 52112-3 0 9996

TLE line 2: 2 55002 98.7925 193.2289 0027505 228.7718 131.1086 14.16656269135490

Live tracking on map

Real-time ground track for satellite CZ-6A DEB.

In-orbit conjunctions

A list of the most updated potential collisions computed for object CZ-6A DEB.

Target Orbit TCA Probability of collision Miss distance Type
SL-16 R/B LEO 2025-03-10 21:58:21 0.0001003003 376.0 (m) ROCKET BODY
FENGYUN 1C DEB SSO 2024-11-17 17:03:01 0.0001647507 112.0 (m) DEBRIS
SOLRAD 1 (GREB) LEO 2024-10-09 04:50:52 0.0002598775 118.0 (m) PAYLOAD

Associated space launch

Chinese satellite reported for atmospheric/ocean/environmental/spatial parameter research purposes, details TBD.

CZ-6A DEB was lifted into orbit during the mission ‘Long March 6A | Yunhai 3’, on board a Long March 6A space rocket.

The launch took place on Nov. 11, 2022, 10:52 p.m. from Launch Complex 9A.

For more information about the launch, click the button.

Launch to space Long March 6A | Yunhai 3
Long March 6A | Yunhai 3

Agency: N/A

Status: Launch Successful

Launch date: Nov. 11, 2022, 10:52 p.m. UTC

Rocket: Long March 6A

Launch pad: Launch Complex 9A

Location: Taiyuan Satellite Launch Center, People's Republic of China

...

Latest news about this satellite

There are no fresh news available about this satellite. Check back as we update our databases every day.


Newsletter sign-up

Weekly statistics, charts and insights to help you stay on top of the space industry.